Weather History for Greensboro, NC

Change the Weather History Date:

Monday, January 1, 2007

  Actual Average Record
Temperature  
Mean Temperature 55 °F 39 °F  
Max Temperature 65 °F 48 °F 75 °F (1985)
Min Temperature 44 °F 30 °F 8 °F (1918)
Degree Days  
Heating Degree Days 10 26  
Month to date heating degree days 10 26  
Since 1 July heating degree days 1266 1440  
Cooling Degree Days 0 0  
Month to date cooling degree days 0 0  
Year to date cooling degree days 0 0  
Growing Degree Days 5 (Base 50)    
Moisture  
Dew Point 55 °F    
Average Humidity 75    
Maximum Humidity 100    
Minimum Humidity 50    
Precipitation  
Precipitation 0.56 in 0.09 in 1.76 in (1925)
Month to date precipitation 0.56 0.09  
Year to date precipitation 0.56 0.09  
Snow  
Snow 0.00 in 0.10 in 6.60 in (1962)
Month to date snowfall 0.0 0.1  
Since 1 July snowfall 0.0 1.0  
Snow Depth 0.00 in    
Sea Level Pressure  
Sea Level Pressure 29.92 in    
Wind  
Wind Speed 14 mph (SW)    
Max Wind Speed 29 mph    
Max Gust Speed 37 mph    
Visibility 7 miles    
Events Rain    
T = Trace of Precipitation, MM = Missing Value Source: NWS Daily Summary

Daily Weather History Graph

Daily Weather History Graph

Search for Another Location

Airport:

Trip Planner

Search our weather history database for the weather conditions in past years. The results will help you decide how hot, cold, wet, or windy it might be!

Date:

Astronomy

Jan. 01, 2007 Rise Set
Actual Time 7:30 AM EST 5:16 PM EST
Civil Twilight 7:02 AM EST 5:44 PM EST
Nautical Twilight 6:30 AM EST 6:16 PM EST
Astronomical Twilight 5:58 AM EST 6:47 PM EST
Moon 3:15 PM EST (1/1) 5:52 AM EST (1/1)
Length of Visible Light 10h 42m
Length of Day
9h 45m
Waxing Gibbous, 96% of the Moon is Illuminated
Jan 1
Waxing Gibbous
Jan 3
Full
Jan 11
Last Quarter
Jan 18
New
Jan 25
First Quarter

Hourly Weather History & Observations

Time (EST) Temp. Windchill Dew Point Humidity Pressure Visibility Wind Dir Wind Speed Gust Speed Precip Events Conditions
12:10 AM 60.8 °F - 59.0 °F 94% 30.00 in 3.0 mi SSE 11.5 mph - 0.00 in Rain Light Rain
12:38 AM 62.6 °F - 60.8 °F 94% 29.98 in 4.0 mi South 18.4 mph - 0.02 in Rain Light Rain
12:54 AM 64.0 °F - 62.1 °F 93% 29.96 in 6.0 mi South 20.7 mph 25.3 mph 0.03 in Rain Light Rain
1:54 AM 64.0 °F - 62.1 °F 93% 29.93 in 9.0 mi South 20.7 mph 26.5 mph 0.01 in   Overcast
2:42 AM 64.4 °F - 62.6 °F 94% 29.90 in 2.5 mi South 26.5 mph 36.8 mph 0.07 in Rain Rain
2:54 AM 64.9 °F - 63.0 °F 93% 29.89 in 10.0 mi South 21.9 mph 36.8 mph 0.07 in Rain Light Rain
3:23 AM 64.4 °F - 62.6 °F 94% 29.92 in 7.0 mi SSW 21.9 mph 31.1 mph 0.01 in Rain Light Rain
3:39 AM 64.4 °F - 62.6 °F 94% 29.92 in 10.0 mi SSW 21.9 mph 29.9 mph 0.02 in Rain Light Rain
3:54 AM 64.9 °F - 62.1 °F 90% 29.91 in 8.0 mi SSW 18.4 mph 26.5 mph 0.03 in Rain Light Rain
4:11 AM 64.4 °F - 62.6 °F 94% 29.92 in 4.0 mi SSW 17.3 mph 32.2 mph 0.04 in Rain Rain
4:24 AM 64.4 °F - 62.6 °F 94% 29.92 in 2.5 mi SSW 15.0 mph - 0.12 in Rain Heavy Rain
4:54 AM 64.9 °F - 62.1 °F 90% 29.90 in 8.0 mi South 17.3 mph 21.9 mph 0.22 in Rain Light Rain
5:54 AM 64.9 °F - 62.1 °F 90% 29.89 in 10.0 mi South 15.0 mph 25.3 mph 0.00 in   Overcast
6:54 AM 64.0 °F - 61.0 °F 90% 29.90 in 5.0 mi SSW 11.5 mph 21.9 mph 0.01 in Rain Light Rain
7:54 AM 64.0 °F - 61.0 °F 90% 29.89 in 9.0 mi SSW 15.0 mph - 0.00 in   Overcast
8:43 AM 64.4 °F - 60.8 °F 88% 29.92 in 3.0 mi SW 17.3 mph 23.0 mph 0.00 in Rain Light Rain
8:46 AM 64.4 °F - 60.8 °F 88% 29.92 in 1.8 mi WSW 19.6 mph 26.5 mph 0.01 in Rain Rain
8:54 AM 62.1 °F - 60.1 °F 93% 29.91 in 2.5 mi WSW 18.4 mph 26.5 mph 0.05 in Rain Light Rain
9:05 AM 62.6 °F - 59.0 °F 88% 29.92 in 4.0 mi WSW 13.8 mph 21.9 mph 0.00 in Rain Light Rain
9:44 AM 60.8 °F - 59.0 °F 94% 29.93 in 2.5 mi SW 13.8 mph - 0.04 in Rain Rain
9:54 AM 61.0 °F - 59.0 °F 93% 29.93 in 2.0 mi SW 13.8 mph - 0.06 in Rain Heavy Rain
9:56 AM 60.8 °F - 59.0 °F 94% 29.94 in 2.5 mi SW 15.0 mph 21.9 mph 0.01 in Rain Rain
10:54 AM 60.1 °F - 57.9 °F 93% 29.91 in 4.0 mi SW 12.7 mph - 0.02 in Rain Light Rain
11:09 AM 60.8 °F - 57.2 °F 88% 29.91 in 1.8 mi SSW 10.4 mph - 0.01 in Rain Light Rain
11:13 AM 60.8 °F - 57.2 °F 88% 29.90 in 2.5 mi SSW 12.7 mph - 0.01 in Rain Light Rain
11:16 AM 60.8 °F - 57.2 °F 88% 29.90 in 4.0 mi SSW 12.7 mph - 0.01 in Rain Light Rain
11:23 AM 60.8 °F - 57.2 °F 88% 29.89 in 10.0 mi SSW 13.8 mph - 0.01 in Rain Light Rain
11:54 AM 57.9 °F - 57.0 °F 97% 29.87 in 4.0 mi SSW 11.5 mph - 0.05 in Rain Rain
12:01 PM 57.2 °F - 57.2 °F 100% 29.88 in 6.0 mi SSW 15.0 mph 20.7 mph 0.01 in Rain Light Rain
12:24 PM 59.0 °F - 57.2 °F 94% 29.87 in 10.0 mi SW 15.0 mph - 0.01 in   Mostly Cloudy
12:54 PM 57.9 °F - 54.0 °F 87% 29.84 in 10.0 mi SSW 17.3 mph - 0.01 in Rain Light Rain
1:54 PM 57.9 °F - 51.1 °F 78% 29.82 in 10.0 mi SSW 13.8 mph - 0.00 in   Overcast
2:54 PM 57.0 °F - 48.9 °F 74% 29.83 in 10.0 mi SW 10.4 mph - N/A   Mostly Cloudy
3:54 PM 57.0 °F - 46.9 °F 69% 29.82 in 10.0 mi SW 9.2 mph - N/A   Mostly Cloudy
4:54 PM 55.0 °F - 46.9 °F 74% 29.83 in 10.0 mi WSW 10.4 mph - N/A   Partly Cloudy
5:54 PM 53.1 °F - 46.9 °F 80% 29.87 in 10.0 mi WSW 8.1 mph - N/A   Partly Cloudy
6:54 PM 54.0 °F - 37.9 °F 55% 29.92 in 10.0 mi WNW 13.8 mph - N/A   Mostly Cloudy
7:54 PM 53.1 °F - 35.1 °F 50% 29.95 in 10.0 mi WNW 12.7 mph 23.0 mph N/A   Scattered Clouds
8:54 PM 51.1 °F - 35.1 °F 54% 29.99 in 10.0 mi NW 16.1 mph - N/A   Partly Cloudy
9:54 PM 48.9 °F - 32.0 °F 52% 30.03 in 10.0 mi NW 15.0 mph 23.0 mph N/A   Clear
10:54 PM 46.9 °F - 30.9 °F 54% 30.07 in 10.0 mi WNW 10.4 mph - N/A   Partly Cloudy
11:54 PM 44.1 °F 38.6 °F 30.0 °F 58% 30.11 in 10.0 mi NW 10.4 mph - N/A   Partly Cloudy